sat.trackr.live / text

‹ back to catalog

OTB-3-GAZELLE

NORAD 54023 · 2022-127A

PAYLOAD ACTIVE UNKNOWN

§ Identity

Operator
Country
US
Launch date
2022-10-07
Launch site
RLLB
Launch vehicle
Mass (kg)
RCS (m²)

External: N2YO · Heavens-Above · Gunter

§ Orbital elements

Epoch: 2026-09-20T21:48:33.715584Z

Period
99.81 min
Inclination
98.4043°
Eccentricity
0.0011873
Mean motion
14.42702421 rev/d
Perigee alt
741.1 km
Apogee alt
758.0 km
Semi-major
7,127.7 km
B*
3.3579e-5
RAAN
254.1995°
Arg perigee
259.4388°
Mean anomaly
100.5464°
Rev number
20,816

§ Raw data

OTB-3-GAZELLE1 54023U 22127A   26263.90872356  .00000068  00000+0  33579-4 0  99912 54023  98.4043 254.1995 0011873 259.4388 100.5464 14.42702421208162

JSON: /api/v1/satellites/54023 · /tle

For live sub-satellite position, see the globe view (requires WebGL).

§ Visibility from observer

Set your observer location to see the next 7 days of passes ≥ 10°. The values pass through the URL so the page stays shareable.

No JS? Fill the form by hand. The geolocation button needs JavaScript.

§ Radio — SatNOGS DB

ModeDescriptionDownlinkUplink
QPSK A-DCS L-band downlink 1.703 GHz
OQPSK A-DCS UHF downlink (inactive) 465.988 MHz

2 transmitters · refreshed weekly from db.satnogs.org